Location: Newark
(9.9210°N, 0.2190°W)
Time: 11:44:29
(UTC+00:00)

N. Korean satellite - Visible Passes

Search period start: 18 November 2019 00:00
Search period end: 28 November 2019 00:00
Orbit: 456 x 506 km, 97.2° (Epoch: 17 November)

Date Brightness Start Highest point End Pass type
(mag) Time Alt. Az. Time Alt. Az. Time Alt. Az.
18 Nov 8.8 05:10:48 10° NE 05:14:02 31° E 05:17:13 10° SSE visible
19 Nov 10.1 04:47:08 10° ENE 04:48:39 12° E 04:50:10 10° SE visible
19 Nov 9.9 18:11:56 10° SW 18:14:09 16° W 18:16:22 10° WNW visible
21 Nov 7.2 05:27:38 10° NNE 05:31:13 62° E 05:34:44 10° S visible
22 Nov 9.3 05:02:58 10° NE 05:05:51 23° E 05:08:41 10° SSE visible
23 Nov 9.7 18:03:11 10° SSW 18:05:56 21° W 18:08:44 10° NW visible
25 Nov 7.9 05:19:35 10° NNE 05:23:00 44° E 05:26:22 10° S visible
26 Nov 9.8 04:55:15 10° ENE 04:57:37 17° E 04:59:57 10° SE visible
26 Nov 10.3 18:21:54 10° WSW 18:23:06 11° W 18:24:18 10° W visible
27 Nov 9.1 17:54:34 10° SSW 17:57:42 28° W 18:00:53 10° NW visible
